Location: Newark
(55.7083°N, 13.1992°E)
Time: 20:11:27
(UTC+00:00)

Transit 4A - Pass Details

Date: 20 February 2020
Orbit: 871 x 973 km, 66.8° (Epoch: 09 April)

Event Time Altitude Azimuth Distance (km) Brightness Sun altitude
Exits shadow 04:55:29 10° 310° (NW) 2,573 9.8 -12.8°
Reaches altitude 10° 04:55:37 10° 310° (NW) 2,531 9.7 -12.7°
Maximum altitude 05:00:40 29° 10° (N) 1,545 9.2 -12.0°
Drops below altitude 10° 05:05:44 10° 71° (ENE) 2,537 11.4 -11.3°
Sets 05:08:34 0° 82° (E) 3,484 12.8 -10.9°
